Tracking 29892 objects as of 21-Nov-2024
HD Live streaming from Space Station
objects crossing your sky now

STARLINK-11277

Track STARLINK-11277 now!
10-day predictions


NORAD ID: 61205
Int'l Code: 2024-171F
Perigee: 366.7 km
Apogee: 367.0 km
Inclination: 53.2 °
Period: 91.7 minutes
Semi major axis: 6737 km
RCS: Unknown
Launch date: September 20, 2024
Source: United States (US)
Launch site: AIR FORCE WESTERN TEST RANGE (AFWTR)
Your satellite tracking list
Your tracking list is empty




NASA's NSSDC Master Catalog

Two Line Element Set (TLE):
1 61205U 24171F   24325.49877975  .00002113  00000-0  22279-4 0  9994
2 61205  53.1567 353.7101 0000250  87.4556 272.6491 15.69711667 10826
Source of the keplerian elements: AFSPC